Location: Bletchingley
(51.2333°N, 0.1000°W)
Time: 13:11:26
(UTC+00:00)

SPOT 3 Rocket - Pass Details

Date: 18 September 2020
Orbit: 779 x 794 km, 98.8° (Epoch: 22 October)

Event Time Altitude Azimuth Distance (km) Brightness Sun altitude
Exits shadow 20:03:39 26° 155° (SSE) 1,505 4.6 -18.4°
Maximum altitude 20:06:37 78° 72° (ENE) 803 3.4 -18.8°
Drops below altitude 10° 20:11:48 10° 347° (NNW) 2,347 6.6 -19.5°
Sets 20:14:07 0° 346° (NNW) 3,280 7.4 -19.8°
